This is the latest recevied weather packets stored in our database for station/object KC9VAF. If no packets are shown the sender has not sent any weather packets the latest 10 day(s).
| Time | Temp. | Humidity | Pressure | Rain* | Wind** | Luminosity | Snow |
|---|---|---|---|---|---|---|---|
| 1778202437 | 5.56° C | 68% | 1011.7 hPa | 0 mm | - | 0 W/m² | - |
| 1778202135 | 6.11° C | 67% | 1011.6 hPa | 0 mm | - | 1 W/m² | - |
| 1778201832 | 6.11° C | 66% | 1011.4 hPa | 0 mm | - | 3 W/m² | - |
| 1778201529 | 6.11° C | 65% | 1011.4 hPa | 0 mm | - | 5 W/m² | - |
| 1778201224 | 6.11° C | 66% | 1011.3 hPa | 0 mm | - | 8 W/m² | - |
| 1778200921 | 6.67° C | 65% | 1011.1 hPa | 0 mm | - | 11 W/m² | - |
| 1778200617 | 6.67° C | 65% | 1011.1 hPa | 0 mm | - | 14 W/m² | - |
| 1778200315 | 6.67° C | 64% | 1011.1 hPa | 0 mm | - | 18 W/m² | - |
| 1778200011 | 6.67° C | 63% | 1010.9 hPa | 0 mm | - | 23 W/m² | - |
| 1778199709 | 7.22° C | 62% | 1011.3 hPa | 0 mm | - | 29 W/m² | - |
| 1778199404 | 7.22° C | 61% | 1011.1 hPa | 0 mm | - | 31 W/m² | - |
| 1778199100 | 7.78° C | 61% | 1011.4 hPa | 0 mm | - | 39 W/m² | - |
| 1778198796 | 7.78° C | 61% | 1011 hPa | 0 mm | - | 42 W/m² | - |
| 1778198494 | 7.78° C | 62% | 1011.1 hPa | 0 mm | - | 37 W/m² | - |
| 1778198190 | 8.33° C | 60% | 1011.1 hPa | 0 mm | - | 39 W/m² | - |
| 1778197888 | 8.33° C | 62% | 1011.1 hPa | 0 mm | - | 58 W/m² | - |
| 1778197585 | 8.33° C | 66% | 1011 hPa | 0 mm | - | 83 W/m² | - |
| 1778197281 | 8.89° C | 67% | 1011.1 hPa | 0 mm | - | 94 W/m² | - |
| 1778196978 | 8.89° C | 67% | 1011 hPa | 0 mm | - | 99 W/m² | - |
| 1778196676 | 8.89° C | 66% | 1011.1 hPa | 0 mm | - | 112 W/m² | - |
| 1778196373 | 8.89° C | 66% | 1010.9 hPa | 0 mm | - | 126 W/m² | - |
| 1778196070 | 8.89° C | 64% | 1011 hPa | 0 mm | - | 138 W/m² | - |
| 1778195766 | 8.89° C | 64% | 1011 hPa | 0 mm | - | 150 W/m² | - |
| 1778195463 | 8.89° C | 64% | 1010.9 hPa | 0 mm | - | 173 W/m² | - |
| 1778195160 | 8.89° C | 64% | 1011.4 hPa | 0 mm | - | 187 W/m² | - |
* Rain latest hour (hover to see other rain measurements)
** Current wind speed in m/s (hover to see current wind gust speed)